Location: �bnet
(46.9957°N, 8.4908°E)
Time: 08:42:05
(UTC+00:00)

Cosmos 1812 - Pass Details

Date: 11 May 2021
Orbit: 514 x 521 km, 82.5° (Epoch: 14 June)

Event Time Altitude Azimuth Distance (km) Brightness Sun altitude
Exits shadow 20:47:34 20° 193° (SSW) 1,256 4.3 -16.2°
Maximum altitude 20:50:11 81° 278° (W) 535 2.7 -16.4°
Drops below altitude 10° 20:54:04 10° 7° (N) 1,769 6.0 -16.8°
Sets 20:56:14 0° 9° (N) 2,662 7.0 -17.1°
